King Salmon, AK

5:47 PM AKDT on May 24, 2017 (GMT -0800)
King Salmon

Weather History for PAKN - October, 2012

Change the Weather History Date:

Monday, October 15, 2012

  Actual Average Record
Temperature  
Mean Temperature 27 °F 34 °F  
Max Temperature 31 °F 42 °F 59 °F (1969)
Min Temperature 23 °F 26 °F 4 °F (1961)
Degree Days  
Heating Degree Days 38 31  
Month to date heating degree days 343 416  
Since 1 July heating degree days 1666 1554  
Cooling Degree Days 0 0  
Month to date cooling degree days 0 0  
Year to date cooling degree days 0 1  
Moisture  
Dew Point 14 °F    
Average Humidity 0    
Maximum Humidity 0    
Minimum Humidity 0    
Precipitation  
Precipitation T in 0.07 in 1.00 in (1919)
Month to date precipitation 1.85 1.18  
Year to date precipitation 21.90 15.97  
Snow  
Snow T in 0.10 in - ()
Month to date snowfall 11.1 0.7  
Since 1 July snowfall 11.1 0.8  
Since 1 September snowfall 11.1 0.8  
Snow Depth 9.00 in    
Sea Level Pressure  
Sea Level Pressure 29.33 in    
Wind  
Wind Speed 16 mph (NNW)    
Max Wind Speed 28 mph    
Max Gust Speed 33 mph    
Visibility 10 miles    
Events Snow    
T = Trace of Precipitation, MM = Missing Value Source: NWS Daily Summary

Daily Weather History Graph

Daily Weather History Graph

Search for Another Location

Airport or City:

Trip Planner

Search our weather history database for the weather conditions in past years. The results will help you decide how hot, cold, wet, or windy it might be!

Date:

Astronomy

Oct. 15, 2012 Rise Set
Actual Time 9:04 AM AKDT 7:18 PM AKDT
Civil Twilight 8:24 AM AKDT 7:59 PM AKDT
Nautical Twilight 7:37 AM AKDT 8:45 PM AKDT
Astronomical Twilight 6:51 AM AKDT 9:31 PM AKDT
Moon 9:46 AM AKDT (10/15) 7:03 PM AKDT (10/15)
Length of Visible Light 11h 34m
Length of Day
10h 13m
New Moon, 0% of the Moon is Illuminated
Oct 15
New Moon
Oct 21
First Quarter
Oct 29
Full
Nov 6
Last Quarter
Nov 13
New

Hourly Weather History & Observations

Time (AKDT) Temp. Windchill Dew Point Humidity Pressure Visibility Wind Dir Wind Speed Gust Speed Precip Events Conditions
12:54 AM 27.0 °F 15.6 °F 15.1 °F 61% 29.17 in 10.0 mi NNW 13.8 mph - N/A   Scattered Clouds
1:54 AM 26.1 °F 12.3 °F 14.0 °F 60% 29.19 in 10.0 mi NNW 19.6 mph 25.3 mph N/A   Partly Cloudy
2:54 AM 26.1 °F 13.1 °F 14.0 °F 60% 29.19 in 10.0 mi NNW 17.3 mph 27.6 mph N/A   Overcast
3:54 AM 25.0 °F 11.3 °F 14.0 °F 63% 29.21 in 10.0 mi NNW 18.4 mph - N/A   Overcast
4:54 AM 24.1 °F 11.5 °F 14.0 °F 65% 29.21 in 10.0 mi NW 15.0 mph 21.9 mph N/A   Overcast
5:54 AM 26.1 °F 13.6 °F 15.1 °F 63% 29.22 in 10.0 mi NW 16.1 mph 27.6 mph N/A   Overcast
6:54 AM 26.1 °F 13.1 °F 15.1 °F 63% 29.23 in 10.0 mi NNW 17.3 mph 24.2 mph N/A   Scattered Clouds
7:54 AM 26.1 °F 12.3 °F 16.0 °F 66% 29.25 in 10.0 mi NNW 19.6 mph 26.5 mph 0.00 in Snow Light Snow
8:54 AM 25.0 °F 12.2 °F 15.1 °F 66% 29.27 in 10.0 mi NNW 16.1 mph 24.2 mph 0.00 in   Mostly Cloudy
9:54 AM 26.1 °F 13.6 °F 17.1 °F 69% 29.29 in 10.0 mi NW 16.1 mph 24.2 mph N/A   Overcast
10:54 AM 27.0 °F 14.3 °F 16.0 °F 63% 29.31 in 10.0 mi NNW 17.3 mph 26.5 mph N/A   Overcast
11:54 AM 27.0 °F 15.2 °F 17.1 °F 66% 29.33 in 10.0 mi NW 15.0 mph 21.9 mph N/A   Overcast
12:54 PM 28.0 °F 14.9 °F 17.1 °F 63% 29.34 in 10.0 mi NNW 19.6 mph 26.5 mph N/A   Overcast
1:54 PM 28.9 °F 16.9 °F 16.0 °F 58% 29.36 in 10.0 mi NNW 17.3 mph 28.8 mph N/A   Overcast
2:54 PM 30.0 °F 17.5 °F 16.0 °F 56% 29.37 in 10.0 mi NNW 19.6 mph 27.6 mph N/A   Mostly Cloudy
3:54 PM 30.0 °F 17.2 °F 15.1 °F 54% 29.37 in 10.0 mi NNW 20.7 mph 31.1 mph N/A   Scattered Clouds
4:54 PM 30.0 °F 16.6 °F 10.9 °F 45% 29.38 in 10.0 mi NNW 23.0 mph 33.4 mph N/A   Scattered Clouds
5:54 PM 28.9 °F 17.3 °F 10.0 °F 45% 29.39 in 10.0 mi NNW 16.1 mph 25.3 mph N/A   Scattered Clouds
6:54 PM 28.0 °F 16.5 °F 10.0 °F 47% 29.41 in 10.0 mi NNW 15.0 mph - N/A   Scattered Clouds
7:54 PM 27.0 °F 15.2 °F 10.0 °F 49% 29.43 in 10.0 mi NNW 15.0 mph - N/A   Scattered Clouds
8:54 PM 26.1 °F 14.5 °F 10.0 °F 51% 29.44 in 10.0 mi NW 13.8 mph - N/A   Partly Cloudy
9:54 PM 25.0 °F 14.8 °F 10.0 °F 53% 29.46 in 10.0 mi NW 10.4 mph - N/A   Scattered Clouds
10:54 PM 23.0 °F 12.4 °F 10.0 °F 58% 29.47 in 10.0 mi NW 10.4 mph - N/A   Clear
11:54 PM 24.1 °F 13.7 °F 12.0 °F 60% 29.48 in 10.0 mi NW 10.4 mph - N/A   Scattered Clouds